TimeEDT,TemperatureF,Dew PointF,Humidity,Sea Level PressureIn,VisibilityMPH,Wind Direction,Wind SpeedMPH,Gust SpeedMPH,PrecipitationIn,Events,Conditions,WindDirDegrees,DateUTC
12:15 AM,63.5,61.0,91,29.64,7.0,North,5.8,-,N/A,Rain,Rain,350,2013-06-29 04:15:00
12:36 AM,63.5,61.5,93,29.64,10.0,North,4.6,-,N/A,,Drizzle,350,2013-06-29 04:36:00
12:55 AM,63.7,61.7,93,29.64,10.0,NNW,4.6,-,N/A,Rain,Light Rain,330,2013-06-29 04:55:00
1:16 AM,63.5,61.5,93,29.64,10.0,NNW,5.8,-,N/A,Rain,Light Rain,330,2013-06-29 05:16:00
1:35 AM,63.5,61.3,93,29.64,10.0,NNW,4.6,-,N/A,,Light Drizzle,330,2013-06-29 05:35:00
1:55 AM,63.5,61.2,92,29.64,10.0,NNW,3.5,-,N/A,Rain,Light Rain,330,2013-06-29 05:55:00
2:16 AM,63.5,61.0,91,29.63,10.0,Calm,Calm,-,N/A,,Light Drizzle,0,2013-06-29 06:16:00
2:35 AM,63.5,60.4,90,29.64,10.0,Calm,Calm,-,N/A,,Overcast,0,2013-06-29 06:35:00
2:55 AM,63.5,60.1,89,29.64,10.0,NNE,4.6,-,N/A,,Mostly Cloudy,30,2013-06-29 06:55:00
3:16 AM,63.0,58.3,85,29.64,10.0,NE,8.1,-,N/A,,Scattered Clouds,40,2013-06-29 07:16:00
3:35 AM,62.6,57.6,84,29.64,10.0,NNE,5.8,-,N/A,,Scattered Clouds,30,2013-06-29 07:35:00
3:55 AM,62.4,56.1,80,29.64,10.0,NNE,8.1,-,N/A,,Mostly Cloudy,20,2013-06-29 07:55:00
4:15 AM,61.9,55.0,78,29.64,10.0,NNE,6.9,-,N/A,,Overcast,20,2013-06-29 08:15:00
4:35 AM,61.7,54.7,78,29.65,10.0,NNE,5.8,-,N/A,,Overcast,20,2013-06-29 08:35:00
4:56 AM,61.3,54.9,79,29.64,10.0,NNE,4.6,-,N/A,,Overcast,30,2013-06-29 08:56:00
5:15 AM,61.3,54.5,78,29.65,10.0,North,3.5,-,N/A,,Mostly Cloudy,10,2013-06-29 09:15:00
5:35 AM,60.3,54.7,82,29.65,10.0,North,4.6,-,N/A,,Scattered Clouds,360,2013-06-29 09:35:00
5:56 AM,60.4,54.5,81,29.65,10.0,North,5.8,-,N/A,,Clear,10,2013-06-29 09:56:00
6:15 AM,60.3,55.0,83,29.65,10.0,North,5.8,-,N/A,,Clear,360,2013-06-29 10:15:00
6:35 AM,60.4,55.6,84,29.65,10.0,North,4.6,-,N/A,,Clear,360,2013-06-29 10:35:00
6:55 AM,60.8,55.8,83,29.66,10.0,North,4.6,-,N/A,,Clear,10,2013-06-29 10:55:00
7:16 AM,61.0,55.9,83,29.67,10.0,North,4.6,-,N/A,,Clear,350,2013-06-29 11:16:00
7:35 AM,61.7,56.3,82,29.67,10.0,North,5.8,-,N/A,,Clear,360,2013-06-29 11:35:00
7:55 AM,61.9,55.9,81,29.67,10.0,North,4.6,-,N/A,,Scattered Clouds,350,2013-06-29 11:55:00
8:16 AM,62.2,55.8,79,29.68,10.0,North,5.8,-,N/A,,Mostly Cloudy,10,2013-06-29 12:16:00
8:35 AM,62.6,56.3,80,29.68,10.0,North,3.5,-,N/A,,Overcast,350,2013-06-29 12:35:00
8:55 AM,63.9,56.1,76,29.68,10.0,North,6.9,-,N/A,,Overcast,360,2013-06-29 12:55:00
9:15 AM,63.5,55.4,75,29.68,10.0,North,8.1,-,N/A,,Overcast,360,2013-06-29 13:15:00
9:36 AM,63.3,55.6,76,29.69,10.0,North,5.8,-,N/A,,Overcast,360,2013-06-29 13:36:00
9:55 AM,64.4,55.9,74,29.68,10.0,North,6.9,-,N/A,,Overcast,350,2013-06-29 13:55:00
10:15 AM,63.5,56.1,77,29.68,10.0,NNW,4.6,-,N/A,,Overcast,340,2013-06-29 14:15:00
10:35 AM,64.2,56.8,77,29.68,10.0,NNW,3.5,-,N/A,,Overcast,330,2013-06-29 14:35:00
10:55 AM,64.4,55.8,73,29.68,10.0,North,3.5,-,N/A,,Overcast,350,2013-06-29 14:55:00
11:15 AM,64.8,56.5,74,29.69,10.0,North,4.6,-,N/A,,Overcast,360,2013-06-29 15:15:00
11:36 AM,66.9,56.8,70,29.69,10.0,NNE,5.8,-,N/A,,Overcast,30,2013-06-29 15:36:00
11:55 AM,66.2,56.7,71,29.70,10.0,North,4.6,-,N/A,,Overcast,350,2013-06-29 15:55:00
12:15 PM,67.8,57.2,69,29.70,10.0,Calm,Calm,-,N/A,,Overcast,0,2013-06-29 16:15:00
12:35 PM,68.4,57.0,67,29.70,10.0,NNE,6.9,-,N/A,,Overcast,20,2013-06-29 16:35:00
12:55 PM,69.3,57.6,66,29.71,10.0,NE,5.8,-,N/A,,Mostly Cloudy,40,2013-06-29 16:55:00
1:15 PM,69.4,58.1,67,29.71,10.0,ENE,5.8,-,N/A,,Mostly Cloudy,60,2013-06-29 17:15:00
1:35 PM,69.4,57.4,65,29.71,10.0,NNE,6.9,-,N/A,,Scattered Clouds,30,2013-06-29 17:35:00
1:55 PM,70.7,58.1,64,29.71,10.0,NNE,8.1,-,N/A,,Scattered Clouds,30,2013-06-29 17:55:00
2:15 PM,70.7,57.9,64,29.71,10.0,NNW,5.8,-,N/A,,Clear,330,2013-06-29 18:15:00
2:35 PM,71.6,58.6,64,29.71,10.0,North,5.8,-,N/A,,Scattered Clouds,360,2013-06-29 18:35:00
2:55 PM,72.0,58.6,63,29.71,10.0,NW,10.4,-,N/A,,Scattered Clouds,320,2013-06-29 18:55:00
3:16 PM,72.5,59.2,63,29.71,10.0,NNW,8.1,-,N/A,,Scattered Clouds,340,2013-06-29 19:16:00
3:35 PM,73.4,59.0,61,29.71,10.0,North,9.2,-,N/A,,Clear,350,2013-06-29 19:35:00
3:55 PM,73.8,58.1,58,29.72,10.0,North,3.5,-,N/A,,Clear,360,2013-06-29 19:55:00
4:15 PM,73.8,58.3,58,29.72,10.0,NNW,3.5,-,N/A,,Scattered Clouds,340,2013-06-29 20:15:00
4:35 PM,73.8,58.3,58,29.72,10.0,NNW,8.1,-,N/A,,Mostly Cloudy,330,2013-06-29 20:35:00
4:55 PM,74.5,58.1,57,29.72,10.0,NNW,9.2,-,N/A,,Mostly Cloudy,340,2013-06-29 20:55:00
5:15 PM,74.1,59.0,59,29.73,10.0,NNW,6.9,-,N/A,,Overcast,340,2013-06-29 21:15:00
5:36 PM,73.9,58.5,58,29.73,10.0,NW,8.1,-,N/A,,Scattered Clouds,320,2013-06-29 21:36:00
5:55 PM,73.4,57.7,58,29.73,10.0,NW,5.8,-,N/A,,Clear,310,2013-06-29 21:55:00
6:15 PM,73.6,58.8,60,29.73,10.0,NW,5.8,-,N/A,,Clear,310,2013-06-29 22:15:00
6:36 PM,73.4,58.5,59,29.73,10.0,NW,5.8,-,N/A,,Clear,320,2013-06-29 22:36:00
6:55 PM,73.4,58.5,59,29.74,10.0,NW,4.6,-,N/A,,Clear,310,2013-06-29 22:55:00
7:16 PM,72.5,58.6,62,29.74,10.0,NW,5.8,-,N/A,,Scattered Clouds,320,2013-06-29 23:16:00
7:35 PM,71.6,59.0,64,29.75,10.0,WNW,3.5,-,N/A,,Scattered Clouds,300,2013-06-29 23:35:00
7:55 PM,71.6,59.7,66,29.75,10.0,Calm,Calm,-,N/A,,Scattered Clouds,0,2013-06-29 23:55:00
8:15 PM,72.1,59.9,65,29.75,10.0,WNW,3.5,-,N/A,,Mostly Cloudy,300,2013-06-30 00:15:00
8:35 PM,71.4,60.4,68,29.75,10.0,WNW,3.5,-,N/A,,Mostly Cloudy,300,2013-06-30 00:35:00
8:56 PM,70.0,59.2,68,29.76,10.0,WNW,4.6,-,N/A,,Mostly Cloudy,290,2013-06-30 00:56:00
9:15 PM,68.5,59.0,72,29.76,10.0,WNW,4.6,-,N/A,,Scattered Clouds,300,2013-06-30 01:15:00
9:35 PM,68.4,57.2,67,29.77,10.0,NW,5.8,-,N/A,,Scattered Clouds,320,2013-06-30 01:35:00
9:55 PM,67.5,57.6,70,29.77,10.0,NW,5.8,-,N/A,,Mostly Cloudy,320,2013-06-30 01:55:00
10:15 PM,66.6,56.7,70,29.78,10.0,NW,4.6,-,N/A,,Mostly Cloudy,310,2013-06-30 02:15:00
10:36 PM,65.7,55.8,70,29.79,10.0,NW,4.6,-,N/A,,Overcast,310,2013-06-30 02:36:00
10:55 PM,64.4,55.8,73,29.80,10.0,NW,4.6,-,N/A,,Mostly Cloudy,310,2013-06-30 02:55:00
11:15 PM,64.4,55.4,73,29.80,10.0,NW,4.6,-,N/A,,Mostly Cloudy,310,2013-06-30 03:15:00
11:35 PM,64.6,54.0,68,29.80,10.0,NNW,8.1,-,N/A,,Mostly Cloudy,340,2013-06-30 03:35:00
11:55 PM,65.3,53.8,66,29.80,10.0,NNW,8.1,-,N/A,,Mostly Cloudy,330,2013-06-30 03:55:00